Location: Ebendorf
(52.1827°N, 11.5706°E)
Time: 09:52:58
(UTC+00:00)

Cosmos 2263 Rocket - Pass Details

Date: 15 May 2021
Orbit: 822 x 850 km, 71.0° (Epoch: 20 June)

Event Time Altitude Azimuth Distance (km) Brightness Sun altitude
Rises 02:32:50 0° 326° (NW) 3,399 5.5 -6.4°
Reaches altitude 10° 02:35:21 10° 321° (NW) 2,465 4.7 -6.1°
Maximum altitude 02:40:45 48° 249° (WSW) 1,095 2.5 -5.5°
Drops below altitude 10° 02:46:09 10° 176° (S) 2,464 4.3 -4.9°
Sets 02:48:40 0° 171° (S) 3,398 5.0 -4.6°
